User: anonymous   Login
Location: Laterina
(43.5167°N, 11.7167°E)
Time: 23:37:02
(UTC+00:00)
Language:

Cosmos 1634 Rocket - Orbit

View from above orbital plane
View from above orbital plane
View from above satellite
View from above satellite

Ground track
Ground track

The orbit data is extracted from the following two-line orbital elements,

1 15598U 85022B   20332.31660449 +.00000012 +00000-0 -35259-5 0  9991
2 15598 082.9385 251.1650 0021758 184.3176 287.6576 13.76577255793455
Epoch (UTC): 27 November 2020 07:35:54
Eccentricity: 0.0021758
inclination: 82.9385°
perigee height: 960 km
apogee height: 992 km
right ascension of ascending node: 251.1650°
argument of perigee: 184.3176°
revolutions per day: 13.76577255
mean anomaly at epoch: 287.6576°
orbit number at epoch: 79345

The dashed part of the orbit path shows where the satellite is in the earth's shadow,  

DLR